Home   Weather   Nancy   Past weeks

Flag for France Past Weather in Nancy, Lorraine, France — Yesterday and Last 2 Weeks

Now
32 °F

Dense fog.


Feels Like: 29 °F
Forecast: 26 / 44 °F
Wind: 3 mph from North

Location: Nancy / Ochey

Current Time: Dec 7, 2016 at 3:50:11 pm

Latest Report: Dec 7, 2016 at 3:30 pm


Visibility: 1 mi

Pressure: 30.48 "Hg

Humidity: 100%

Dew Point: 32 °F

Location of NancyLocation

Past Weather in Nancy — Graph

°F

Nancy Temperature Yesterday

Maximum temperature yesterday: 37 °F (at 2:00 pm)
Minimum temperature yesterday: 23 °F (at 2:30 am)
Average temperature yesterday: 27 °F

High & Low Weather Summary for the Past Weeks

 TemperatureHumidityPressure
High52 °F (Nov 23, 11:30 am)100% (Nov 22, 5:00 pm)30.54 "Hg (Nov 22, 5:00 pm)
Low19 °F (Nov 30, 4:30 am)36% (Dec 1, 2:00 pm)29.83 "Hg (Nov 22, 2:00 pm)
Average37 °F85%30.19 "Hg
* Reported Nov 22 2:00 pm — Dec 7 2:30 pm, Nancy, Weather by CustomWeather, © 2016

Note: Actual official high and low records may vary slightly from our data, if they occured in-between our weather recording intervals... More about our weather records

Advertising

Nancy Weather History for the Previous 24 Hours

Scroll right to see more
 ConditionsComfort  
Time TempWeatherWind HumidityBarometerVisibility
2:30 pm
Wed, Dec 7
30 °FIce fog.2 mph100%30.48 "Hg1 mi
2:00 pm30 °FIce fog.3 mph100%30.48 "Hg2 mi
1:30 pm30 °FIce fog.5 mph100%30.48 "Hg1 mi
1:00 pm30 °FIce fog.2 mph100%30.51 "Hg0 mi
12:30 pm28 °FIce fog.5 mph100%30.51 "Hg0 mi
12:00 pm28 °FIce fog.3 mph100%30.51 "Hg0 mi
11:30 am28 °FIce fog.3 mph100%30.51 "Hg2 mi
11:00 am27 °FLow clouds.2 mph100%30.51 "Hg4 mi
10:30 am27 °FLow clouds.2 mph100%30.51 "Hg4 mi
10:00 am27 °FIce fog.2 mph100%30.51 "Hg2 mi
9:30 am25 °FIce fog.2 mph100%30.48 "Hg2 mi
9:00 am25 °FIce fog.3 mph100%30.48 "Hg1 mi
8:30 am25 °FIce fog.3 mph93%30.48 "Hg1 mi
8:00 am25 °FIce fog.2 mph100%30.48 "Hg1 mi
7:30 am25 °FIce fog.2 mph93%30.48 "Hg1 mi
7:00 am25 °FIce fog.3 mph100%30.48 "Hg1 mi
6:30 am25 °FIce fog.2 mph93%30.48 "Hg1 mi
6:00 am25 °FIce fog.1 mph100%30.48 "Hg1 mi
5:30 am25 °FIce fog.2 mph100%30.48 "Hg1 mi
5:00 am25 °FIce fog.2 mph100%30.48 "Hg1 mi
4:30 am25 °FIce fog.No wind93%30.48 "Hg1 mi
4:00 am23 °FIce fog.No wind100%30.48 "Hg1 mi
3:30 am25 °FIce fog.3 mph93%30.48 "Hg1 mi
3:00 am25 °FIce fog.2 mph100%30.48 "Hg1 mi
2:30 am25 °FIce fog.2 mph100%30.51 "Hg1 mi
2:00 am25 °FIce fog.1 mph100%30.48 "Hg1 mi
1:30 am25 °FIce fog.1 mph100%30.48 "Hg1 mi
1:00 am25 °FIce fog.2 mph100%30.48 "Hg1 mi
12:30 am25 °FIce fog.3 mph100%30.48 "Hg1 mi
12:00 am25 °FIce fog.1 mph100%30.48 "Hg1 mi
11:30 pm
Tue, Dec 6
23 °FIce fog.3 mph100%30.48 "Hg1 mi
11:00 pm25 °FIce fog.2 mph100%30.48 "Hg1 mi
10:30 pm25 °FIce fog.2 mph100%30.48 "Hg1 mi
10:00 pm25 °FIce fog.2 mph100%30.48 "Hg1 mi
9:30 pm27 °FIce fog.3 mph93%30.48 "Hg1 mi
9:00 pm25 °FIce fog.1 mph100%30.45 "Hg1 mi
8:30 pm27 °FIce fog.3 mph100%30.45 "Hg1 mi
8:00 pm27 °FIce fog.3 mph100%30.45 "Hg1 mi
7:00 pm27 °FIce fog.2 mph100%30.42 "Hg1 mi
6:30 pm27 °FIce fog.No wind100%30.45 "Hg0 mi
6:00 pm27 °FIce fog.3 mph100%30.45 "Hg1 mi
5:30 pm28 °FIce fog.2 mph100%30.45 "Hg1 mi
5:00 pm28 °FIce fog.1 mph100%30.42 "Hg1 mi
4:30 pm30 °FIce fog.5 mph100%30.45 "Hg0 mi
4:00 pm30 °FIce fog.3 mph100%30.42 "Hg0 mi
3:30 pm32 °FFog.3 mph100%30.42 "Hg0 mi
3:00 pm34 °FFog.3 mph87%30.42 "Hg2 mi
Weather by CustomWeather, © 2016

See weather overviewHow to use our weather pages